User: anonymous   Login
Location: Prairie State College
(41.5244°N, 87.6382°W)
Time: 01:27:08
(UTC-05:00)
Language:

ARGOS Delta rocket - Orbit

View from above orbital plane
View from above orbital plane
View from above satellite
View from above satellite

Ground track
Ground track

The orbit data is extracted from the following two-line orbital elements,

1 25637U 99008D   15243.74949304  .00000145  00000-0  43505-4 0  9995
2 25637  96.4648 287.3077 0142347 205.6626 269.4332 14.46314686870865
Epoch (UTC): 31 August 2015 17:59:16
Eccentricity: 0.0142347
inclination: 96.4648°
perigee height: 636 km
apogee height: 839 km
right ascension of ascending node: 287.3077°
argument of perigee: 205.6626°
revolutions per day: 14.46314686
mean anomaly at epoch: 269.4332°
orbit number at epoch: 87086

The dashed part of the orbit path shows where the satellite is in the earth's shadow,  

DLR